Temperature
7 7 7 7 7 7 7 7 7 7 7 7 8 8 8 8 8 8 9 9 9 9 9 9 9 9 9 9 9 9 9 9 9 9 9 9 9 9
6 6 6 6 6 6 6 7 6 6 6 7 7 7 8 8 8 8 8 8 8 8 8 8 8 8 8 9 9 9 9 9 8 8 8 8 8 8
5 5 5 5 6 6 6 6 6 6 6 6 6 7 7 7 7 7 7 7 7 8 8 8 8 8 8 8 8 8 8 8 8 8 8 8 8 8
4 4 4 5 5 5 5 5 5 5 5 6 6 6 6 6 6 7 7 7 7 7 7 7 7 7 7 7 7 7 7 7 7 7 7 7 7 7
4 4 4 4 4 4 4 5 5 5 5 5 5 5 5 5 5 6 6 6 6 6 6 6 6 6 6 6 7 7 7 7 7 7 7 7 7 7
3 3 3 3 4 4 4 4 4 4 4 4 4 4 4 4 4 5 5 5 5 5 6 6 5 6 6 6 6 6 6 6 6 6 6 6 6 6
3 3 3 3 3 3 3 3 3 3 3 3 3 4 4 3 3 3 4 4 5 5 5 5 5 5 5 5 5 5 5 5 5 5 5 5 5 5
2 2 2 2 2 2 3 3 3 3 3 3 3 3 3 2 2 2 2 2 3 3 3 4 4 4 4 4 4 4 4 4 4 4 4 5 5 5
2 2 2 2 2 2 2 2 2 2 2 2 2 2 2 2 1 1 1 1 1 2 2 2 3 3 3 3 3 3 3 3 4 3 3 4 4 4
1 1 1 1 1 1 1 2 2 2 2 1 1 1 1 1 1 1 0 1 1 1 1 1 2 2 2 3 3 3 3 3 3 3 3 3 3 3
1 1 1 1 1 1 1 1 1 1 1 1 1 1 1 1 0 0 -0 -0 -0 0 0 -0 0 0 1 2 2 2 2 2 2 2 2 2 3 3
0 1 1 1 1 1 0 1 1 1 1 0 0 0 0 0 -0 -0 -1 -1 -1 -2 -1 -1 -1 -2 -1 0 1 1 1 1 1 1 2 2 2 2
-0 0 0 0 0 0 -0 0 0 -0 -0 -0 -0 -0 -0 -0 -1 -1 -1 -2 -2 -2 -2 -3 -3 -3 -3 -3 -0 1 0 0 0 1 1 1 1 1
-0 -0 -0 -0 -0 -0 -1 -1 -1 -1 -1 -1 -1 -1 -1 -1 -1 -2 -2 -2 -2 -2 -2 -3 -3 -3 -4 -4 -3 -1 -1 -1 -1 -0 -0 -0 0 0
-1 -1 -1 -1 -1 -1 -1 -1 -1 -1 -1 -1 -2 -2 -2 -2 -2 -2 -2 -2 -2 -2 -3 -3 -3 -3 -4 -4 -4 -3 -2 -1 -1 -1 -1 -1 -1 -0
-1 -2 -2 -2 -2 -2 -2 -2 -2 -2 -2 -2 -2 -2 -2 -3 -3 -3 -3 -3 -3 -2 -3 -3 -4 -4 -4 -4 -4 -3 -3 -3 -2 -2 -2 -2 -1 -1
-2 -2 -2 -2 -2 -2 -2 -2 -3 -3 -3 -3 -3 -3 -3 -3 -3 -3 -3 -4 -4 -4 -3 -3 -4 -4 -4 -4 -4 -3 -3 -3 -3 -3 -3 -3 -2 -1
-3 -3 -3 -3 -3 -3 -3 -3 -3 -3 -4 -4 -4 -4 -4 -4 -4 -4 -4 -4 -5 -5 -5 -5 -5 -4 -4 -4 -4 -4 -4 -4 -4 -4 -4 -4 -3 -2
-3 -3 -3 -3 -4 -4 -4 -4 -4 -4 -4 -5 -5 -5 -5 -5 -5 -5 -5 -5 -5 -5 -5 -5 -6 -6 -6 -6 -5 -4 -5 -5 -4 -4 -4 -4 -4 -3
-3 -4 -4 -4 -4 -4 -5 -5 -5 -5 -5 -5 -5 -5 -5 -6 -6 -6 -6 -6 -6 -6 -6 -6 -6 -6 -7 -7 -6 -5 -5 -5 -5 -5 -5 -4 -4 -3
-4 -4 -4 -5 -5 -5 -5 -5 -6 -6 -6 -6 -6 -6 -6 -6 -6 -6 -6 -6 -7 -7 -7 -6 -6 -7 -7 -6 -6 -6 -5 -5 -6 -6 -5 -5 -4 -4
-4 -5 -5 -5 -5 -5 -6 -6 -6 -6 -6 -6 -7 -7 -7 -7 -7 -7 -7 -7 -7 -7 -7 -7 -7 -7 -7 -7 -7 -7 -6 -5 -5 -5 -5 -5 -5 -5
-5 -5 -5 -5 -6 -6 -6 -6 -6 -7 -7 -7 -7 -7 -7 -7 -7 -8 -8 -8 -8 -8 -8 -8 -7 -7 -7 -7 -7 -7 -6 -6 -6 -5 -4 -4 -4 -4
Wind_Speed
4 4 4 3 3 3 3 3 4 5 5 3 2 1 1 3 5 5 5 8 10 11 12 13 14 13 13 13 13 13 13 13 14 15 15 15 16 16
3 3 4 3 3 3 3 3 3 5 6 3 2 1 2 3 4 4 5 7 8 9 10 11 12 12 12 13 14 13 13 14 15 15 16 16 16 16
4 4 4 4 3 3 3 3 4 4 6 4 2 2 3 3 3 4 5 5 6 8 9 10 11 12 13 13 14 14 14 15 15 15 16 17 17 17
4 4 4 3 4 3 3 4 4 4 5 5 3 2 3 3 3 3 3 5 5 8 9 11 11 11 12 13 14 14 15 16 16 16 16 17 17 17
3 4 4 3 4 3 3 3 3 4 4 4 4 2 2 2 3 3 3 3 5 7 8 9 10 10 12 13 13 14 14 15 16 16 17 17 17 18
3 3 3 3 3 4 3 4 3 4 4 4 3 3 2 3 2 3 4 3 5 6 6 7 9 11 12 13 13 13 14 15 16 15 16 16 16 17
3 3 3 3 4 4 3 3 3 3 3 4 4 3 3 2 3 2 4 5 5 3 3 5 6 6 8 10 11 12 12 13 15 15 16 16 16 16
3 3 3 3 4 5 5 4 4 4 4 4 4 4 4 4 3 4 4 4 4 2 4 7 5 6 6 7 11 13 13 14 14 14 16 16 16 16
3 3 3 3 3 3 4 5 5 5 5 5 5 5 5 5 4 5 5 6 6 5 5 6 5 6 6 9 13 14 13 13 13 14 14 15 15 16
2 3 3 3 3 3 3 3 3 4 4 4 4 4 4 4 5 5 6 6 6 4 3 5 5 5 7 7 12 12 13 13 14 14 15 15 15 15
2 2 2 2 4 4 3 3 4 3 3 4 5 5 6 6 5 3 3 4 5 4 2 3 4 5 6 6 7 10 12 13 15 15 15 15 15 14
2 2 3 3 5 5 3 3 4 4 3 3 3 3 3 4 5 3 3 4 5 4 2 2 4 4 5 4 4 6 9 13 16 16 16 16 15 9
2 2 2 4 5 5 4 3 4 3 2 2 2 2 2 2 3 3 3 4 5 5 3 3 4 4 5 6 6 6 5 7 8 11 13 15 15 11
2 2 2 3 5 5 4 4 4 3 1 1 2 2 2 3 3 4 5 5 6 7 7 5 5 6 7 8 7 6 6 6 7 8 8 11 12 14
2 2 3 4 4 3 3 4 3 1 1 1 2 3 2 3 3 4 4 4 5 7 7 7 6 6 7 8 8 8 8 7 6 6 7 8 8 7
2 2 3 4 3 3 3 3 2 1 2 2 2 3 2 3 3 3 4 4 4 5 5 6 6 6 7 9 9 10 8 6 6 8 8 8 7 7
1 1 1 2 1 2 2 2 2 2 2 2 3 3 3 3 4 3 3 4 4 6 6 4 5 6 7 8 9 9 8 8 8 8 8 9 8 7
1 1 1 1 2 2 2 2 2 2 2 3 3 3 3 4 4 4 4 4 5 6 6 6 6 6 5 5 8 8 7 7 7 8 7 9 10 8
1 1 2 2 1 1 1 2 2 2 2 2 3 3 3 4 4 4 4 4 5 6 6 5 5 5 8 9 5 5 6 8 8 8 7 8 10 10
1 2 2 2 1 1 1 2 2 2 2 2 3 3 3 3 4 4 4 5 6 6 6 5 5 5 7 9 9 8 9 8 8 9 9 8 8 11
2 2 2 2 2 2 2 2 2 2 2 2 3 3 3 3 4 4 5 7 7 6 7 7 7 10 7 6 8 8 7 9 10 9 9 9 9 8
2 2 2 2 2 2 2 2 2 2 3 3 3 3 3 3 4 5 5 5 6 6 8 8 7 7 6 7 9 10 11 10 10 13 13 10 7 6
2 2 2 2 2 2 2 2 3 3 3 3 3 3 3 4 4 5 5 6 6 7 8 8 7 6 6 7 8 9 11 11 9 8 8 10 13 14
Wind_Direction
264 263 258 258 255 254 252 241 245 258 255 240 238 242 273 268 254 255 258 254 253 255 258 260 261 263 264 263 262 262 262 263 264 263 260 255 254 258
265 262 265 261 259 252 248 253 246 251 258 247 259 291 295 304 279 275 268 264 261 260 263 263 263 264 265 267 265 266 264 262 262 262 261 258 256 257
272 262 259 260 259 260 255 254 253 254 261 269 268 281 287 284 294 286 277 271 269 268 271 272 269 265 265 268 267 266 264 261 262 263 263 260 258 258
277 274 265 263 262 260 256 254 256 255 256 263 264 265 280 277 276 283 301 298 290 279 277 276 273 272 274 272 270 268 266 262 261 263 263 259 258 257
288 285 282 269 272 272 267 263 260 265 263 260 268 267 283 299 302 313 308 299 304 290 285 282 281 284 283 280 277 273 268 265 263 264 263 260 259 258
293 294 294 286 274 269 265 258 256 256 259 258 263 273 279 286 290 297 305 301 299 302 296 297 297 295 290 286 282 278 273 270 266 265 265 264 262 260
298 296 299 306 305 293 274 264 257 253 256 255 263 276 278 284 281 290 295 304 300 295 311 302 299 295 293 292 292 291 287 282 273 269 268 267 266 264
278 288 294 300 310 309 308 304 285 262 255 256 261 261 272 277 283 289 293 304 294 300 312 299 297 291 291 294 298 300 298 293 285 278 276 272 270 267
268 278 287 296 301 295 301 306 306 294 272 258 258 265 273 277 277 277 277 281 283 294 304 287 288 287 292 299 299 299 298 298 298 291 285 280 277 273
274 272 275 290 295 289 299 297 285 286 277 263 250 259 268 268 258 268 276 285 289 284 285 279 287 288 298 299 297 300 301 302 304 303 296 290 285 280
282 286 284 282 294 297 293 288 289 296 312 293 279 281 287 295 294 284 286 292 293 289 287 278 291 304 294 283 293 301 306 308 307 303 300 297 291 285
287 285 288 291 301 300 279 274 278 284 297 304 305 306 305 312 310 279 266 274 288 283 280 301 298 321 303 279 287 303 304 304 304 301 299 298 295 289
293 291 287 302 305 305 300 282 273 284 286 282 293 304 311 312 311 308 290 266 269 271 276 303 294 297 283 292 296 288 289 298 303 301 296 293 291 286
289 286 299 318 316 313 306 298 306 304 273 270 285 291 298 307 308 302 296 287 274 268 273 276 275 280 287 289 288 290 293 294 290 290 292 295 292 288
286 303 322 331 330 325 312 316 325 299 255 264 277 281 284 287 295 297 302 301 295 286 280 273 263 268 271 277 282 289 298 292 280 288 293 289 284 287
299 311 323 329 331 329 336 346 355 319 291 273 280 283 293 295 293 294 299 307 306 300 289 283 273 265 273 275 276 282 284 281 290 294 295 291 282 275
304 329 341 341 335 330 338 346 350 344 328 307 289 287 295 297 296 295 295 301 296 297 304 301 290 280 267 269 274 275 278 281 284 292 295 294 287 278
295 303 298 297 299 308 317 329 332 325 319 314 310 301 295 296 301 304 300 294 292 293 297 301 308 311 298 275 251 264 275 282 291 292 288 289 289 284
270 274 277 280 293 308 311 312 313 312 315 312 307 303 301 300 302 304 304 301 296 294 294 295 298 300 303 303 284 247 275 291 295 293 286 283 285 288
256 257 269 277 282 289 299 305 307 310 311 307 304 303 303 302 304 305 304 302 302 303 303 298 293 292 288 288 289 289 279 273 285 291 293 288 284 285
254 255 258 261 268 275 282 284 286 292 296 295 295 297 299 301 300 300 302 307 308 305 303 301 294 298 289 285 286 290 287 276 275 279 287 289 292 292
249 252 256 256 262 265 270 277 281 282 285 285 289 292 296 297 295 297 299 303 302 301 300 299 300 302 297 292 292 294 299 302 292 280 272 266 272 272
247 251 260 259 258 257 259 266 273 279 279 280 285 291 294 295 295 295 297 297 298 301 305 307 308 304 297 290 292 296 298 303 305 305 295 284 274 271
Height
1459 1460 1460 1461 1462 1463 1464 1466 1467 1465 1464 1465 1467 1468 1469 1469 1469 1470 1470 1471 1472 1473 1473 1473 1473 1473 1473 1473 1473 1473 1473 1473 1474 1475 1475 1476 1476 1477
1454 1455 1455 1456 1457 1458 1459 1460 1461 1461 1459 1459 1461 1462 1463 1462 1463 1464 1464 1465 1466 1466 1466 1467 1466 1466 1466 1466 1466 1465 1465 1466 1466 1466 1467 1467 1468 1469
1449 1450 1450 1451 1452 1452 1453 1454 1455 1455 1454 1453 1455 1456 1457 1457 1457 1457 1458 1458 1459 1459 1460 1459 1459 1459 1459 1459 1458 1458 1458 1458 1458 1458 1458 1459 1460 1460
1445 1445 1445 1446 1447 1447 1448 1449 1449 1450 1450 1448 1449 1450 1451 1451 1451 1451 1451 1452 1452 1453 1453 1453 1453 1452 1452 1452 1451 1450 1450 1450 1450 1450 1450 1451 1451 1452
1441 1441 1441 1441 1442 1442 1443 1443 1444 1444 1444 1443 1443 1444 1444 1445 1445 1445 1445 1445 1446 1446 1446 1446 1446 1445 1445 1444 1443 1443 1442 1442 1442 1442 1442 1442 1442 1443
1437 1437 1437 1437 1437 1437 1437 1438 1438 1439 1439 1438 1438 1438 1439 1440 1440 1439 1438 1439 1439 1439 1439 1439 1438 1438 1437 1437 1436 1435 1434 1434 1433 1434 1433 1433 1434 1434
1433 1433 1433 1433 1433 1433 1433 1433 1433 1433 1433 1433 1433 1433 1433 1434 1434 1433 1433 1432 1432 1432 1431 1431 1431 1430 1430 1429 1428 1427 1426 1426 1425 1425 1425 1425 1425 1426
1429 1429 1429 1429 1429 1429 1429 1429 1429 1429 1428 1429 1428 1428 1428 1429 1429 1429 1428 1427 1425 1427 1425 1424 1425 1423 1422 1422 1421 1420 1419 1418 1418 1417 1417 1416 1416 1416
1426 1425 1425 1425 1425 1425 1424 1424 1424 1424 1425 1425 1423 1423 1423 1424 1424 1424 1423 1422 1420 1420 1419 1417 1418 1416 1416 1414 1414 1413 1412 1410 1409 1409 1408 1408 1408 1408
1422 1422 1422 1421 1421 1421 1420 1420 1420 1420 1420 1420 1419 1419 1419 1419 1419 1419 1417 1416 1415 1416 1415 1411 1410 1409 1408 1407 1407 1405 1404 1403 1402 1400 1400 1399 1399 1399
1419 1419 1418 1418 1418 1417 1417 1416 1415 1415 1415 1415 1415 1415 1414 1414 1414 1414 1412 1411 1408 1408 1409 1407 1404 1402 1400 1400 1400 1398 1397 1395 1394 1392 1391 1391 1390 1390
1416 1415 1415 1415 1414 1414 1413 1412 1411 1411 1411 1410 1410 1410 1410 1409 1409 1409 1408 1406 1404 1403 1403 1403 1400 1398 1393 1391 1392 1391 1389 1388 1386 1385 1384 1382 1382 1381
1413 1412 1412 1411 1411 1410 1409 1408 1407 1407 1407 1406 1405 1405 1405 1404 1404 1403 1403 1402 1400 1399 1398 1398 1395 1393 1392 1386 1383 1383 1382 1380 1379 1377 1376 1375 1374 1373
1410 1410 1409 1409 1408 1407 1406 1405 1404 1404 1403 1402 1401 1401 1400 1400 1399 1398 1398 1397 1396 1394 1393 1393 1391 1389 1386 1382 1378 1375 1375 1374 1372 1370 1368 1367 1366 1365
1407 1407 1406 1405 1405 1403 1403 1402 1401 1400 1399 1398 1397 1397 1397 1396 1394 1393 1392 1392 1391 1390 1388 1387 1386 1384 1382 1378 1374 1370 1368 1366 1365 1363 1361 1359 1358 1357
1404 1404 1403 1402 1401 1401 1400 1398 1397 1397 1395 1394 1394 1393 1392 1391 1390 1389 1388 1386 1385 1383 1383 1382 1380 1379 1376 1373 1370 1366 1364 1361 1358 1356 1354 1352 1351 1350
1402 1401 1400 1399 1398 1397 1396 1395 1394 1393 1392 1391 1390 1389 1388 1387 1386 1385 1384 1382 1380 1378 1376 1376 1375 1373 1370 1368 1364 1361 1358 1355 1353 1351 1348 1345 1343 1343
1399 1397 1397 1396 1395 1394 1393 1392 1391 1390 1389 1388 1386 1385 1384 1383 1382 1381 1380 1378 1376 1374 1372 1370 1368 1366 1363 1360 1359 1355 1353 1350 1347 1345 1343 1339 1335 1335
1396 1395 1394 1394 1393 1392 1391 1390 1389 1387 1386 1385 1383 1382 1381 1380 1378 1377 1376 1374 1372 1370 1368 1366 1364 1362 1358 1353 1351 1351 1349 1345 1342 1339 1337 1334 1330 1327
1393 1392 1392 1391 1390 1389 1388 1387 1386 1384 1383 1382 1381 1379 1378 1377 1375 1374 1372 1370 1368 1366 1363 1362 1360 1358 1355 1351 1346 1343 1343 1340 1337 1333 1330 1327 1325 1323
1390 1389 1389 1388 1387 1386 1385 1384 1383 1381 1380 1379 1377 1376 1375 1374 1372 1370 1368 1366 1364 1362 1359 1357 1355 1354 1351 1347 1342 1337 1336 1335 1333 1329 1325 1322 1319 1316
1387 1386 1385 1385 1384 1383 1382 1381 1380 1378 1377 1376 1375 1373 1372 1370 1369 1367 1365 1363 1360 1358 1355 1353 1350 1348 1345 1342 1338 1333 1329 1327 1326 1324 1322 1319 1316 1312
1383 1383 1382 1381 1380 1379 1378 1377 1376 1375 1374 1373 1372 1370 1369 1367 1366 1364 1362 1359 1357 1354 1352 1348 1345 1343 1341 1338 1334 1330 1325 1322 1319 1316 1314 1313 1311 1309